This demonstration page uses our WeatherBlox Daily Observations layout. Learn more.

Left ArrowRight Arrow

Hourly Observations for June 28, 2016

Temp ( °F °C ) Dew Point ( °F °C ) Humidity (%) Winds ( mph kmh ) Pressure ( in mb ) Visibility ( mi km ) Precip ( " mm )
12:52 am 00:52 Clear 73 22.8 68 20 84 84 S 5 7 30.11 1020 10 16 0.00 0.00
1:52 am 01:52 Clear 71 21.7 67 19.4 87 87 S 3 6 30.09 1019 10 16 0.00 0.00
2:52 am 02:52 Clear 71 21.7 68 20 90 90 Calm 30.08 1019 10 16 0.00 0.00
3:52 am 03:52 Clear 68 20 65 18.3 90 90 SE 3 6 30.08 1019 10 16 0.00 0.00
4:12 am 04:12 Mostly Clear with Mist and Fog 68 20 64 18 88 88 Calm 30.09 1019 2 3 0.00 0.00
4:16 am 04:16 Mostly Cloudy with Mist and Fog 68 20 64 18 88 88 Calm 30.09 1019 1 2 0.00 0.00
4:23 am 04:23 Mostly Clear with Mist and Fog 68 20 66 18.9 93 93 Calm 30.09 1019 3 4 0.00 0.00
4:30 am 04:30 Mostly Clear with Mist and Fog 70 21 66 19 88 88 Calm 30.09 1019 5 8 0.00 0.00
4:52 am 04:52 Clear with Mist and Fog 67 19.4 64 17.8 91 91 Calm 30.08 1019 6 10 0.00 0.00
5:04 am 05:04 Partly Cloudy 66 19 64 18 94 94 Calm 30.09 1019 9 14 0.00 0.00
5:15 am 05:15 Mostly Cloudy with Mist and Fog 67 19.4 64 17.8 91 91 Calm 30.09 1019 6 10 0.00 0.00
5:39 am 05:39 Partly Cloudy with Mist and Fog 67 19.4 64 17.8 91 91 Calm 30.09 1019 3 5 0.00 0.00
5:52 am 05:52 Clear 68 20 64 17.8 87 87 NNW 3 6 30.10 1019 10 16 0.00 0.00
6:52 am 06:52 Sunny 68 20 66 18.9 93 93 S 3 6 30.11 1020 10 16 0.00 0.00
7:52 am 07:52 Sunny 77 25 70 21.1 79 79 Calm 30.12 1020 10 16 0.00 0.00
8:52 am 08:52 Sunny 80 26.7 71 21.7 74 74 NNW 3 6 30.14 1021 10 16 0.00 0.00
9:52 am 09:52 Sunny 85 29.4 65 18.3 51 51 Calm 30.12 1020 10 16 0.00 0.00
10:52 am 10:52 Sunny 86 30 65 18.3 49 49 VRB 5 7 30.13 1020 10 16 0.00 0.00
11:52 am 11:52 Sunny 87 30.6 65 18.3 48 48 VRB 6 9 30.13 1020 10 16 0.00 0.00
12:52 pm 12:52 Partly Cloudy 88 31.1 70 21.1 55 55 NW 14 22 30.13 1020 10 16 0.00 0.00
1:52 pm 13:52 Partly Cloudy 88 31.1 68 20 52 52 N 10 17 30.13 1020 10 16 0.00 0.00
2:52 pm 14:52 Sunny 87 30.6 66 18.9 50 50 N 10 17 30.10 1019 10 16 0.00 0.00
3:52 pm 15:52 Sunny 88 31.1 62 16.7 42 42 N 6 9 30.08 1019 10 16 0.00 0.00
4:52 pm 16:52 Sunny 87 30.6 63 17.2 45 45 N 12 19 30.06 1018 10 16 0.00 0.00
5:52 pm 17:52 Sunny 87 30.6 66 18.9 50 50 NNE 8 13 30.04 1017 10 16 0.00 0.00
6:52 pm 18:52 Sunny 85 29.4 68 20 57 57 NNE 12 19 30.03 1017 10 16 0.00 0.00
7:52 pm 19:52 Sunny 83 28.3 69 20.6 63 63 NE 10 17 30.04 1017 10 16 0.00 0.00
8:52 pm 20:52 Clear 80 26.7 69 20.6 69 69 NE 7 11 30.05 1018 10 16 0.00 0.00
9:52 pm 21:52 Clear 77 25 68 20 74 74 NE 8 13 30.05 1018 10 16 0.00 0.00
10:52 pm 22:52 Clear 75 23.9 66 18.9 74 74 ENE 7 11 30.06 1018 10 16 0.00 0.00
11:52 pm 23:52 Clear 74 23.3 65 18.3 74 74 NE 6 9 30.06 1018 10 16 0.00 0.00

Powered by AerisWeather